Retour au catalogue

STARLINK-3199

ActifCommunicationsVLEO
NORAD 49760·PAYLOAD·🇺🇸 United States

Lancé Dec 2, 2021 depuis Cape Canaveral Space Force Station

Loading…

Prochains Passages (prochaines 24 heures)

TLE

FraisSource: CelesTrak SupGP

Époque: Sep 14, 2026, 20:40 UTC

1 49760C 21115AN  26257.86159722 -.00020564  00000+0 -60761-3 0  2576
2 49760  53.1595 355.7403 0001214  75.9479 269.4796 15.34398489    10

Suivez STARLINK-3199 en temps réel avec AllMySat

Download on the App Store